When you browse on this site, cookies collect data to enhance your experience and personalize the content and advertising you see.
Visit our Privacy Policy to learn more. By continuing to use the site, you agree to this use of cookies and data.
  • In United Kingdom
  • List of Countries
  • For 7 days
  • Water Temperature
  • Weather Map
  • Weather Widgets
  • user-avatar
    Login

    Hourly Weather Mansa

    Today, 20 September, Friday

    Time Temperature Precipitation Wind Pressure Humidity
    00:00 +21°C° 0 mm 4 mps 660 mmHg 35%
    01:00 +21°C° 0 mm 4 mps 660 mmHg 37%
    02:00 +20°C° 0 mm 4 mps 660 mmHg 43%
    03:00 +20°C° 0 mm 4 mps 660 mmHg 46%
    04:00 +19°C° 0 mm 4 mps 660 mmHg 49%
    05:00 +18°C° 0 mm 4 mps 660 mmHg 52%
    06:00 +20°C° 0 mm 5 mps 661 mmHg 49%
    07:00 +22°C° 0 mm 6 mps 662 mmHg 46%
    08:00 +24°C° 0 mm 6 mps 663 mmHg 42%
    09:00 +27°C° 0 mm 6 mps 663 mmHg 35%
    10:00 +29°C° 0 mm 5 mps 663 mmHg 29%
    11:00 +32°C° 0 mm 4 mps 663 mmHg 22%
    12:00 +34°C° 0 mm 4 mps 662 mmHg 19%
    13:00 +35°C° 0 mm 3 mps 661 mmHg 17%
    14:00 +36°C° 0 mm 2 mps 661 mmHg 14%
    15:00 +36°C° 0 mm 2 mps 660 mmHg 14%
    16:00 +35°C° 0 mm 2 mps 660 mmHg 14%
    17:00 +34°C° 0 mm 2 mps 659 mmHg 14%
    18:00 +30°C° 0 mm 2 mps 659 mmHg 18%
    19:00 +27°C° 0 mm 2 mps 659 mmHg 21%
    20:00 +24°C° 0 mm 2 mps 659 mmHg 25%
    21:00 +23°C° 0 mm 2 mps 659 mmHg 26%
    22:00 +22°C° 0 mm 3 mps 659 mmHg 28%
    23:00 +22°C° 0 mm 3 mps 659 mmHg 30%

    Tomorrow, 21 September, Saturday

    Time Temperature Precipitation Wind Pressure Humidity
    00:00 +21°C° 0 mm 3 mps 659 mmHg 34%
    01:00 +20°C° 0 mm 3 mps 659 mmHg 39%
    02:00 +20°C° 0 mm 3 mps 659 mmHg 43%
    03:00 +19°C° 0 mm 3 mps 659 mmHg 46%
    04:00 +18°C° 0 mm 3 mps 659 mmHg 48%
    05:00 +17°C° 0 mm 3 mps 659 mmHg 51%
    06:00 +19°C° 0 mm 4 mps 660 mmHg 47%
    07:00 +21°C° 0 mm 5 mps 661 mmHg 42%
    08:00 +25°C° 0 mm 5 mps 662 mmHg 38%
    09:00 +27°C° 0 mm 5 mps 662 mmHg 33%
    10:00 +30°C° 0 mm 4 mps 662 mmHg 27%
    11:00 +33°C° 0 mm 4 mps 662 mmHg 21%
    12:00 +35°C° 0 mm 3 mps 662 mmHg 19%
    13:00 +37°C° 0 mm 2 mps 661 mmHg 16%
    14:00 +39°C° 0 mm 1 mps 661 mmHg 13%
    15:00 +37°C° 0 mm 1 mps 660 mmHg 14%
    16:00 +35°C° 0 mm 1 mps 659 mmHg 15%
    17:00 +34°C° 0 mm 1 mps 659 mmHg 15%
    18:00 +31°C° 0 mm 1 mps 659 mmHg 18%
    19:00 +28°C° 0 mm 1 mps 658 mmHg 22%
    20:00 +25°C° 0 mm 1 mps 658 mmHg 25%
    21:00 +25°C° 0 mm 1 mps 658 mmHg 25%
    22:00 +24°C° 0 mm 1 mps 658 mmHg 26%
    23:00 +24°C° 0 mm 1 mps 659 mmHg 26%

    Day after tomorrow, 22 September, Sunday

    Time Temperature Precipitation Wind Pressure Humidity
    00:00 +23°C° 0 mm 2 mps 658 mmHg 29%
    01:00 +21°C° 0 mm 2 mps 658 mmHg 31%
    02:00 +20°C° 0 mm 2 mps 658 mmHg 34%
    03:00 +19°C° 0 mm 3 mps 658 mmHg 38%
    04:00 +19°C° 0 mm 3 mps 658 mmHg 42%
    05:00 +18°C° 0 mm 3 mps 658 mmHg 46%
    06:00 +20°C° 0 mm 3 mps 659 mmHg 42%
    07:00 +24°C° 0 mm 3 mps 660 mmHg 37%
    08:00 +26°C° 0 mm 4 mps 661 mmHg 33%
    09:00 +29°C° 0 mm 3 mps 661 mmHg 27%
    10:00 +34°C° 0 mm 3 mps 662 mmHg 22%
    11:00 +37°C° 0 mm 2 mps 662 mmHg 16%
    12:00 +38°C° 0 mm 2 mps 661 mmHg 15%
    13:00 +39°C° 0 mm 2 mps 661 mmHg 13%
    14:00 +40°C° 0 mm 2 mps 660 mmHg 12%
    15:00 +39°C° 0 mm 1 mps 659 mmHg 13%
    16:00 +37°C° 0 mm 1 mps 659 mmHg 14%
    17:00 +35°C° 0 mm 1 mps 658 mmHg 15%
    18:00 +32°C° 0 mm 1 mps 658 mmHg 17%
    19:00 +29°C° 0 mm 1 mps 658 mmHg 20%
    20:00 +26°C° 0 mm 1 mps 658 mmHg 23%
    21:00 +25°C° 0 mm 1 mps 658 mmHg 24%
    22:00 +25°C° 0 mm 1 mps 658 mmHg 25%
    23:00 +24°C° 0 mm 1 mps 658 mmHg 26%

    23 September, Monday

    Time Temperature Precipitation Wind Pressure Humidity
    00:00 +23°C° 0 mm 1 mps 658 mmHg 28%
    01:00 +21°C° 0 mm 2 mps 657 mmHg 31%
    02:00 +20°C° 0 mm 2 mps 657 mmHg 34%
    03:00 +20°C° 0 mm 2 mps 657 mmHg 37%
    04:00 +19°C° 0 mm 2 mps 658 mmHg 40%
    05:00 +19°C° 0 mm 3 mps 658 mmHg 43%
    06:00 +21°C° 0 mm 3 mps 659 mmHg 39%
    07:00 +24°C° 0 mm 3 mps 660 mmHg 35%
    08:00 +27°C° 0 mm 4 mps 661 mmHg 32%
    09:00 +30°C° 0 mm 4 mps 661 mmHg 26%
    10:00 +34°C° 0 mm 3 mps 661 mmHg 21%
    11:00 +37°C° 0 mm 3 mps 662 mmHg 16%
    12:00 +38°C° 0 mm 3 mps 661 mmHg 14%
    13:00 +39°C° 0 mm 3 mps 660 mmHg 13%
    14:00 +40°C° 0 mm 3 mps 660 mmHg 12%
    15:00 +39°C° 0 mm 3 mps 659 mmHg 12%
    16:00 +38°C° 0 mm 3 mps 659 mmHg 13%
    17:00 +37°C° 0 mm 3 mps 658 mmHg 13%
    18:00 +34°C° 0 mm 2 mps 658 mmHg 17%
    19:00 +30°C° 0 mm 2 mps 658 mmHg 21%
    20:00 +27°C° 0 mm 1 mps 658 mmHg 24%
    21:00 +26°C° 0 mm 2 mps 658 mmHg 25%
    22:00 +26°C° 0 mm 2 mps 659 mmHg 25%
    23:00 +26°C° 0 mm 3 mps 659 mmHg 25%

    24 September, Tuesday

    Time Temperature Precipitation Wind Pressure Humidity
    00:00 +25°C° 0 mm 3 mps 659 mmHg 28%
    01:00 +23°C° 0 mm 4 mps 659 mmHg 32%
    02:00 +22°C° 0 mm 4 mps 658 mmHg 35%
    03:00 +22°C° 0 mm 4 mps 659 mmHg 37%
    04:00 +21°C° 0 mm 3 mps 659 mmHg 39%
    05:00 +20°C° 0 mm 3 mps 659 mmHg 40%
    06:00 +22°C° 0 mm 4 mps 660 mmHg 38%
    07:00 +25°C° 0 mm 4 mps 661 mmHg 35%
    08:00 +27°C° 0 mm 5 mps 662 mmHg 33%
    09:00 +29°C° 0 mm 5 mps 662 mmHg 29%
    10:00 +33°C° 0 mm 5 mps 662 mmHg 25%
    11:00 +35°C° 0 mm 5 mps 662 mmHg 21%
    12:00 +36°C° 0 mm 4 mps 661 mmHg 18%
    13:00 +37°C° 0 mm 4 mps 661 mmHg 16%
    14:00 +38°C° 0 mm 3 mps 660 mmHg 14%
    15:00 +38°C° 0 mm 3 mps 660 mmHg 14%
    16:00 +37°C° 0 mm 3 mps 659 mmHg 14%
    17:00 +37°C° 0 mm 2 mps 659 mmHg 14%
    18:00 +34°C° 0 mm 3 mps 659 mmHg 16%
    19:00 +31°C° 0 mm 3 mps 659 mmHg 19%
    20:00 +29°C° 0 mm 3 mps 659 mmHg 21%
    21:00 +28°C° 0 mm 3 mps 659 mmHg 23%
    22:00 +27°C° 0 mm 4 mps 659 mmHg 26%
    23:00 +26°C° 0 mm 4 mps 660 mmHg 28%

    25 September, Wednesday

    Time Temperature Precipitation Wind Pressure Humidity
    00:00 +25°C° 0 mm 4 mps 659 mmHg 33%
    01:00 +23°C° 0 mm 4 mps 659 mmHg 39%
    02:00 +22°C° 0 mm 4 mps 659 mmHg 44%
    03:00 +21°C° 0 mm 4 mps 659 mmHg 46%
    04:00 +21°C° 0 mm 4 mps 659 mmHg 47%
    05:00 +20°C° 0 mm 4 mps 660 mmHg 49%
    06:00 +22°C° 0 mm 4 mps 661 mmHg 45%
    07:00 +23°C° 0 mm 5 mps 661 mmHg 41%
    08:00 +26°C° 0 mm 6 mps 662 mmHg 38%
    09:00 +28°C° 0 mm 5 mps 662 mmHg 32%
    10:00 +30°C° 0 mm 5 mps 662 mmHg 27%
    11:00 +33°C° 0 mm 5 mps 662 mmHg 22%
    12:00 +34°C° 0 mm 4 mps 662 mmHg 20%
    13:00 +35°C° 0 mm 4 mps 661 mmHg 18%
    14:00 +36°C° 0 mm 4 mps 660 mmHg 16%
    15:00 +35°C° 0 mm 4 mps 660 mmHg 16%
    16:00 +35°C° 0 mm 4 mps 660 mmHg 17%
    17:00 +34°C° 0 mm 4 mps 660 mmHg 17%
    18:00 +30°C° 0 mm 4 mps 660 mmHg 21%
    19:00 +28°C° 0 mm 4 mps 660 mmHg 25%
    20:00 +26°C° 0 mm 3 mps 660 mmHg 30%
    21:00 +25°C° 0 mm 4 mps 660 mmHg 35%
    22:00 +23°C° 0 mm 5 mps 660 mmHg 40%
    23:00 +23°C° 0 mm 6 mps 661 mmHg 45%
    Show more